TimeMDT,TemperatureF,Dew PointF,Humidity,Sea Level PressureIn,VisibilityMPH,Wind Direction,Wind SpeedMPH,Gust SpeedMPH,PrecipitationIn,Events,Conditions,WindDirDegrees,DateUTC
12:53 AM,64.0,52.0,65,29.95,10.0,SSE,6.9,-,N/A,,Clear,160,2013-08-06 06:53:00
1:53 AM,63.0,53.1,70,29.93,10.0,SSE,5.8,-,N/A,,Clear,150,2013-08-06 07:53:00
2:53 AM,63.0,52.0,67,29.93,10.0,SSE,6.9,-,N/A,,Clear,150,2013-08-06 08:53:00
3:53 AM,61.0,52.0,72,29.95,10.0,Calm,Calm,-,N/A,,Clear,0,2013-08-06 09:53:00
4:53 AM,60.1,52.0,75,29.94,10.0,ESE,5.8,-,N/A,,Clear,120,2013-08-06 10:53:00
5:53 AM,59.0,52.0,78,29.96,10.0,SSE,4.6,-,N/A,,Clear,160,2013-08-06 11:53:00
6:53 AM,59.0,51.1,75,29.96,10.0,South,6.9,-,N/A,,Clear,180,2013-08-06 12:53:00
7:53 AM,66.0,51.1,59,29.95,10.0,SE,8.1,-,N/A,,Clear,130,2013-08-06 13:53:00
8:53 AM,71.1,52.0,51,29.96,10.0,ESE,4.6,-,N/A,,Clear,110,2013-08-06 14:53:00
9:53 AM,75.9,50.0,40,29.96,10.0,Calm,Calm,-,N/A,,Clear,0,2013-08-06 15:53:00
10:53 AM,78.1,54.0,43,29.96,10.0,NW,6.9,-,N/A,,Clear,320,2013-08-06 16:53:00
11:53 AM,78.1,50.0,37,29.94,10.0,Calm,Calm,-,N/A,,Clear,0,2013-08-06 17:53:00
12:53 PM,81.0,52.0,36,29.92,10.0,South,5.8,-,N/A,,Clear,180,2013-08-06 18:53:00
1:53 PM,81.0,51.1,35,29.90,10.0,SW,6.9,-,N/A,,Clear,230,2013-08-06 19:53:00
2:53 PM,79.0,52.0,39,29.92,10.0,West,16.1,-,N/A,,Clear,280,2013-08-06 20:53:00
3:53 PM,73.9,50.0,43,29.96,9.0,South,12.7,-,N/A,,Overcast,180,2013-08-06 21:53:00
4:53 PM,70.0,50.0,49,30.02,7.0,ESE,17.3,-,N/A,,Overcast,120,2013-08-06 22:53:00
5:53 PM,68.0,51.1,55,30.02,10.0,SSE,19.6,-,0.00,,Partly Cloudy,150,2013-08-06 23:53:00
6:53 PM,66.0,54.0,65,30.04,10.0,SSE,16.1,-,N/A,,Partly Cloudy,160,2013-08-07 00:53:00
7:53 PM,66.0,54.0,65,30.03,10.0,SSW,4.6,-,N/A,,Overcast,200,2013-08-07 01:53:00
8:53 PM,66.9,53.1,61,30.00,10.0,SE,8.1,-,N/A,,Mostly Cloudy,140,2013-08-07 02:53:00
9:53 PM,64.9,53.1,65,29.98,10.0,ENE,4.6,-,N/A,,Clear,70,2013-08-07 03:53:00
10:53 PM,68.0,50.0,52,29.95,10.0,ESE,8.1,-,N/A,,Clear,120,2013-08-07 04:53:00
11:53 PM,66.9,50.0,54,29.95,10.0,ENE,5.8,-,N/A,,Clear,70,2013-08-07 05:53:00